Wind_Speed
1 1 3 6 10 5 4 3 4 3 4 3 3 2 2 4 1 5 5 5 4 3 4 4 3 2 2 0 2 2 3 3 3 5 9 4 1 4 5 3 5 3 4 10
3 1 0 3 6 8 7 4 4 6 4 3 2 2 4 7 3 6 4 3 3 3 3 3 3 3 2 2 1 2 1 2 3 7 6 7 4 6 3 3 2 6 3 5
6 4 2 1 3 6 6 3 3 4 7 3 6 4 2 3 5 5 5 2 5 4 4 5 2 4 2 2 4 5 5 3 6 5 4 3 9 14 9 4 2 5 15 17
8 5 4 3 3 4 5 4 2 2 2 6 6 4 3 4 2 2 3 4 3 4 2 4 2 3 4 7 2 2 4 5 4 6 8 5 16 17 17 11 14 6 15 12
8 6 5 4 5 6 7 4 3 3 4 3 5 5 2 3 3 3 2 5 4 6 3 4 3 0 1 5 3 2 3 4 2 9 7 8 18 15 13 13 14 11 10 13
10 8 6 5 7 7 5 8 6 3 3 2 4 2 2 2 6 4 7 6 3 4 1 5 5 7 8 12 5 4 3 3 2 6 4 5 10 7 5 6 7 8 7 5
11 9 7 6 6 6 7 9 7 4 3 2 3 2 3 3 2 6 5 4 5 4 2 5 9 13 14 14 15 13 5 4 1 3 1 4 8 5 6 5 7 7 3 4
12 10 8 7 6 7 7 8 5 4 1 2 3 1 1 4 3 2 2 1 2 6 2 4 6 5 7 5 6 3 8 5 1 2 3 6 10 9 2 2 7 4 4 12
14 11 9 7 6 6 7 7 8 4 6 5 4 1 1 2 1 3 4 7 6 2 6 4 3 2 4 4 3 6 6 5 3 3 4 5 8 4 4 2 5 6 13 14
16 13 11 10 9 8 8 8 8 6 3 3 3 3 3 4 3 2 1 5 4 3 3 2 3 4 2 3 4 4 2 1 4 3 6 8 9 10 5 4 9 14 22 26
17 15 13 11 10 10 9 9 8 8 5 6 4 6 6 6 5 4 6 3 1 4 2 3 4 3 5 1 4 5 6 3 4 2 3 8 4 2 1 9 15 29 31 18
19 18 16 14 12 11 11 10 9 8 7 4 6 11 16 16 10 5 8 4 5 10 3 2 2 3 2 5 7 1 3 7 5 9 7 5 8 22 21 29 32 23 12 12
21 19 18 16 15 13 12 11 9 8 8 15 20 20 19 19 15 13 7 10 12 8 13 7 4 4 3 5 5 4 4 7 4 6 8 16 24 37 38 26 19 13 14 11
25 24 21 19 18 16 15 15 13 11 5 5 10 17 23 22 22 20 21 24 24 23 20 12 3 3 13 4 6 7 9 8 5 14 22 31 30 23 19 11 8 7 5 4
27 27 22 21 21 19 19 18 17 16 11 3 4 11 18 13 11 10 13 15 20 23 18 6 3 6 5 6 2 4 15 15 7 14 24 20 24 16 5 9 6 7 15 23
28 23 25 24 21 20 17 12 22 20 19 6 2 7 17 23 25 32 29 32 28 27 12 7 11 20 9 4 4 12 23 25 32 25 33 31 13 3 4 2 9 13 17 20
27 28 26 22 21 22 23 7 4 12 23 5 6 4 6 17 20 23 24 25 25 19 16 11 19 17 11 2 9 32 22 25 32 33 29 11 5 6 5 10 19 20 20 21
22 24 23 24 22 23 26 22 14 10 22 7 3 2 2 4 3 4 6 5 5 8 8 3 5 5 7 5 28 21 23 24 19 9 3 8 4 8 13 13 18 22 21 23
15 17 16 16 18 14 16 22 21 24 13 5 4 4 3 6 4 4 2 3 1 4 3 3 3 1 5 7 11 18 23 10 8 10 12 8 8 15 18 23 22 22 26 25
17 18 9 6 6 8 9 8 9 13 6 5 5 6 3 10 11 3 2 2 2 2 3 3 3 5 21 32 36 32 7 6 8 12 10 12 12 15 20 22 23 23 27 29
14 6 4 15 16 4 6 3 2 2 2 3 3 10 1 3 3 2 4 1 1 2 3 2 2 2 6 5 12 13 9 10 8 7 5 12 19 23 27 28 26 25 26 27
6 7 15 10 4 2 1 2 1 3 4 5 5 3 4 3 3 2 4 1 2 4 3 1 3 3 14 18 15 14 10 8 8 12 21 25 26 26 28 25 24 24 26 25
14 4 5 3 2 1 5 6 3 2 3 6 6 3 2 3 2 2 2 1 4 1 1 3 3 1 9 8 7 8 13 18 22 26 26 24 24 28 30 29 27 26 29 29
3 4 2 3 2 3 3 2 2 2 3 8 10 5 2 2 2 2 3 3 2 2 3 5 2 5 9 12 17 22 22 20 24 27 26 28 32 37 33 31 31 31 35 33
2 4 3 4 3 3 5 4 6 6 11 8 7 5 1 1 2 2 0 3 3 4 4 3 4 7 13 15 18 18 21 28 29 30 31 33 37 36 36 34 34 31 29 35
1 2 3 4 5 4 3 4 7 10 10 7 3 2 3 3 3 2 5 5 6 4 3 0 8 10 12 14 18 25 33 31 32 34 34 35 36 38 34 37 34 30 34 35
2 2 4 5 2 7 8 9 11 10 9 2 3 3 9 1 2 3 4 5 4 4 9 13 11 12 22 30 31 29 30 34 35 37 38 37 36 35 36 36 34 31 37 29
Wind_Direction
211 19 25 24 38 73 114 109 62 53 39 57 47 86 79 125 10 23 80 87 81 71 38 34 73 107 146 267 31 33 346 124 293 282 298 238 113 120 102 97 320 264 251 272
208 192 24 35 37 49 95 74 91 49 33 108 335 61 62 57 52 25 41 77 55 74 64 92 65 115 177 154 122 171 192 344 346 350 344 15 3 293 110 164 119 222 216 260
213 204 181 106 58 58 92 96 42 45 60 81 127 109 114 105 51 48 55 107 60 74 41 22 62 29 319 310 250 193 145 175 174 208 215 202 281 286 296 177 201 247 254 283
218 211 191 167 127 93 110 67 89 56 327 15 90 110 150 126 121 83 52 36 96 130 91 20 35 11 347 339 51 167 117 209 237 233 243 255 272 283 289 280 258 233 278 282
218 216 198 173 155 136 107 112 123 92 69 49 58 12 42 128 89 113 36 99 90 62 129 186 231 137 216 234 247 70 354 265 200 289 232 236 264 277 270 271 275 267 271 282
211 211 202 175 164 164 117 118 120 127 17 56 79 242 25 132 117 85 120 127 99 45 205 200 228 241 236 245 230 168 217 171 111 267 35 359 299 242 208 226 261 281 275 258
208 209 203 182 169 174 156 149 147 128 261 103 185 10 49 99 114 150 142 130 125 204 209 282 279 278 283 277 271 221 169 110 102 263 90 198 248 282 288 280 269 269 258 290
202 207 206 190 175 166 167 167 165 145 172 185 295 297 22 125 106 97 107 294 162 176 57 35 2 341 3 322 44 20 184 134 211 236 202 286 294 278 237 188 264 172 265 316
193 197 203 199 192 185 188 180 178 163 132 244 202 160 69 140 29 3 119 140 147 183 86 75 121 257 247 296 312 65 67 60 139 178 255 266 236 234 246 303 285 216 330 310
195 193 196 195 191 193 197 194 195 186 174 191 173 192 177 166 131 155 195 170 175 161 114 133 172 237 219 245 196 246 350 329 215 184 246 280 250 265 313 74 287 304 314 307
208 204 202 203 201 199 199 197 198 206 207 199 199 223 235 211 201 146 164 83 240 71 123 148 213 186 234 263 219 196 184 177 227 217 221 270 99 56 127 272 308 310 316 317
215 219 218 217 212 214 215 215 213 219 230 241 230 239 247 254 251 230 193 236 178 193 109 206 141 206 200 194 261 251 227 199 211 194 217 242 280 306 301 311 312 320 315 321
220 221 224 227 225 225 230 237 236 242 263 270 262 257 258 252 258 258 240 234 238 221 241 175 209 221 140 225 228 205 262 247 236 350 263 270 293 294 295 310 312 314 323 1
222 223 227 231 232 231 238 241 243 235 223 234 260 262 273 271 270 252 258 257 260 262 255 229 181 210 201 209 232 213 215 199 236 259 267 278 277 287 302 302 290 329 340 347
226 223 224 230 235 236 242 245 243 241 228 252 238 260 274 251 264 252 239 255 260 265 260 222 235 216 199 219 195 205 215 246 233 256 267 268 288 318 306 304 347 27 335 321
217 218 223 226 231 232 234 251 248 243 242 255 278 260 256 254 254 256 259 266 259 251 249 242 240 232 216 239 244 239 261 260 255 265 277 278 302 1 348 9 344 345 316 312
218 222 221 221 225 227 217 213 188 237 224 246 275 266 237 247 247 246 249 253 258 251 253 235 249 245 221 214 263 265 278 267 280 279 274 270 330 52 58 348 327 318 326 318
216 221 218 218 225 232 229 223 230 198 196 207 230 295 282 211 205 215 219 229 233 229 241 223 240 240 217 256 263 281 283 292 296 256 96 109 98 358 334 330 331 324 318 320
190 193 204 213 219 228 231 240 231 197 197 199 183 169 217 184 202 240 275 248 269 256 259 230 198 206 229 244 282 300 306 281 194 126 111 95 26 353 342 328 327 318 319 320
159 163 160 166 176 168 161 164 194 206 198 199 191 187 218 184 185 186 215 236 267 292 251 279 217 260 278 282 282 286 259 130 140 127 58 36 343 345 341 328 322 320 316 314
146 137 102 133 137 138 170 185 169 197 286 232 219 204 153 163 149 166 206 203 243 258 283 228 266 278 280 10 99 111 87 84 74 54 33 354 342 335 335 332 324 319 318 316
134 139 124 139 155 135 161 177 157 194 221 191 191 204 192 121 132 126 177 205 205 252 278 75 281 293 71 75 79 70 54 44 23 344 331 324 320 327 330 325 320 321 324 321
128 106 129 151 137 91 166 196 201 222 205 176 162 120 143 128 137 108 101 139 231 331 202 239 224 54 54 49 49 24 2 348 338 328 322 316 314 324 326 325 327 321 314 324
122 137 118 166 188 244 198 187 161 146 172 148 148 111 118 110 99 131 214 253 356 269 216 224 234 37 30 5 348 339 335 331 324 321 318 319 322 325 322 320 321 312 311 314
135 147 174 195 160 126 105 131 142 142 146 134 106 81 117 54 89 207 86 3 244 226 229 208 66 356 334 331 330 328 325 327 324 325 322 319 319 320 317 315 313 307 310 319
190 134 127 144 136 113 156 163 156 150 140 143 141 109 59 261 161 77 218 159 221 244 194 9 320 319 326 329 330 325 325 325 322 320 318 316 315 316 315 315 312 312 316 312
154 169 167 170 146 182 201 188 192 189 190 188 132 132 213 100 59 246 199 207 213 147 317 322 325 330 334 330 327 325 324 321 318 318 316 315 316 315 315 315 314 307 316 306
Height
1542 1542 1542 1541 1540 1540 1540 1540 1542 1543 1542 1544 1547 1553 1549 1551 1551 1550 1551 1553 1557 1560 1560 1563 1564 1567 1565 1564 1564 1567 1566 1574 1583 1563 1553 1549 1551 1558 1564 1586 1575 1581 1575 1550
1541 1542 1542 1542 1541 1540 1540 1541 1543 1544 1542 1556 1557 1549 1551 1554 1553 1554 1554 1556 1556 1557 1562 1569 1565 1564 1564 1564 1564 1566 1566 1578 1587 1570 1559 1555 1559 1552 1560 1567 1578 1574 1584 1555
1541 1541 1542 1542 1541 1541 1541 1543 1548 1545 1544 1546 1548 1551 1554 1556 1555 1556 1556 1557 1558 1561 1565 1564 1566 1566 1565 1565 1564 1563 1565 1572 1575 1583 1572 1569 1565 1552 1555 1561 1581 1561 1549 1538
1540 1540 1541 1542 1542 1541 1542 1543 1548 1548 1555 1551 1550 1551 1553 1556 1558 1557 1557 1559 1560 1562 1570 1569 1569 1568 1568 1565 1563 1564 1567 1576 1570 1567 1564 1563 1556 1554 1552 1554 1550 1559 1538 1537
1538 1540 1540 1541 1541 1542 1542 1544 1546 1548 1550 1550 1550 1553 1555 1554 1557 1558 1561 1564 1564 1564 1567 1568 1569 1568 1569 1569 1565 1565 1566 1575 1570 1566 1563 1563 1556 1549 1548 1548 1544 1540 1538 1534
1537 1538 1539 1540 1541 1542 1542 1545 1546 1548 1552 1552 1555 1557 1554 1555 1555 1559 1560 1561 1564 1567 1565 1565 1565 1564 1563 1562 1563 1567 1569 1573 1581 1564 1571 1568 1557 1543 1542 1539 1535 1536 1539 1530
1535 1537 1538 1540 1541 1542 1543 1544 1546 1548 1558 1554 1555 1554 1554 1555 1556 1558 1560 1560 1562 1564 1563 1564 1562 1560 1558 1557 1556 1560 1567 1575 1579 1571 1573 1569 1537 1531 1530 1533 1530 1527 1527 1526
1533 1536 1537 1539 1540 1542 1543 1544 1546 1547 1555 1554 1553 1554 1555 1556 1557 1558 1559 1559 1560 1561 1563 1568 1572 1570 1563 1559 1556 1555 1557 1569 1573 1576 1567 1552 1539 1528 1528 1530 1530 1525 1526 1522
1531 1533 1536 1538 1541 1542 1543 1544 1546 1548 1550 1553 1552 1553 1554 1556 1557 1557 1558 1559 1560 1561 1565 1576 1590 1588 1574 1566 1557 1558 1560 1562 1572 1570 1565 1555 1533 1524 1523 1523 1531 1520 1519 1515
1528 1531 1534 1536 1539 1541 1543 1544 1546 1548 1549 1550 1551 1552 1553 1553 1555 1558 1557 1558 1559 1559 1568 1578 1582 1580 1566 1571 1573 1569 1570 1569 1573 1581 1566 1553 1525 1522 1520 1542 1525 1515 1515 1511
1526 1529 1532 1534 1537 1539 1541 1542 1544 1547 1548 1549 1549 1550 1551 1552 1552 1556 1556 1559 1557 1561 1567 1571 1572 1569 1566 1563 1555 1557 1559 1568 1562 1564 1559 1547 1520 1521 1529 1520 1511 1510 1505 1504
1523 1527 1529 1532 1534 1537 1539 1541 1542 1544 1546 1547 1546 1547 1548 1550 1550 1552 1552 1552 1551 1551 1560 1563 1564 1564 1561 1559 1550 1544 1549 1545 1546 1543 1533 1517 1515 1516 1515 1511 1506 1503 1503 1501
1520 1523 1527 1530 1532 1534 1536 1538 1539 1542 1544 1544 1542 1541 1545 1546 1546 1547 1550 1548 1549 1548 1547 1548 1552 1553 1549 1547 1542 1542 1538 1533 1534 1532 1515 1511 1511 1510 1508 1506 1503 1501 1499 1497
1515 1519 1522 1526 1529 1531 1534 1535 1536 1539 1542 1540 1536 1535 1538 1539 1541 1541 1542 1542 1543 1544 1543 1542 1544 1546 1540 1535 1531 1530 1531 1528 1523 1519 1512 1506 1506 1504 1503 1499 1499 1497 1495 1492
1510 1514 1518 1521 1525 1527 1529 1530 1531 1534 1540 1535 1531 1531 1532 1533 1533 1533 1534 1535 1537 1537 1537 1535 1535 1532 1531 1524 1523 1520 1518 1513 1518 1504 1502 1502 1497 1498 1497 1496 1495 1494 1495 1492
1504 1508 1512 1517 1520 1522 1525 1525 1525 1529 1532 1531 1526 1523 1522 1525 1526 1527 1528 1528 1529 1530 1529 1524 1521 1522 1523 1520 1510 1503 1502 1504 1502 1499 1501 1498 1495 1494 1494 1494 1495 1493 1490 1486
1498 1503 1508 1512 1514 1516 1518 1519 1519 1523 1527 1526 1521 1516 1517 1516 1518 1519 1520 1520 1521 1522 1522 1515 1515 1514 1517 1509 1501 1488 1499 1497 1494 1492 1492 1492 1492 1492 1494 1494 1491 1488 1485 1483
1492 1497 1502 1506 1508 1508 1511 1511 1516 1519 1522 1521 1516 1515 1515 1515 1514 1515 1515 1514 1515 1514 1511 1509 1507 1507 1506 1501 1485 1490 1489 1489 1490 1489 1486 1489 1492 1493 1493 1491 1487 1483 1480 1478
1488 1492 1496 1501 1503 1504 1504 1510 1511 1512 1516 1512 1511 1513 1514 1512 1513 1515 1515 1514 1512 1510 1506 1506 1507 1503 1498 1488 1488 1487 1486 1486 1487 1487 1488 1490 1494 1491 1488 1486 1479 1478 1475 1472
1488 1492 1497 1499 1501 1504 1507 1507 1508 1508 1505 1505 1505 1508 1510 1511 1511 1512 1516 1512 1511 1507 1505 1504 1500 1491 1489 1486 1485 1484 1485 1484 1484 1483 1486 1486 1489 1487 1483 1481 1475 1471 1468 1464
1489 1491 1494 1499 1502 1505 1506 1506 1506 1505 1506 1504 1503 1504 1504 1506 1508 1509 1511 1510 1512 1510 1509 1505 1502 1498 1488 1484 1482 1485 1485 1486 1487 1487 1486 1486 1484 1482 1476 1471 1467 1464 1461 1457
1489 1491 1495 1501 1503 1505 1508 1506 1507 1505 1503 1502 1503 1504 1504 1504 1506 1507 1510 1510 1511 1509 1506 1506 1498 1497 1492 1488 1487 1487 1489 1488 1488 1488 1486 1485 1481 1477 1471 1466 1461 1457 1454 1451
1490 1493 1496 1499 1503 1505 1509 1503 1502 1503 1499 1499 1500 1503 1504 1505 1506 1508 1509 1511 1513 1505 1503 1499 1500 1496 1495 1494 1492 1491 1489 1487 1484 1481 1479 1476 1473 1470 1464 1459 1456 1452 1447 1445
1490 1492 1499 1498 1501 1500 1499 1500 1498 1499 1499 1499 1499 1502 1504 1505 1506 1507 1508 1506 1505 1504 1502 1501 1495 1494 1494 1493 1491 1488 1485 1483 1481 1477 1473 1468 1465 1460 1456 1452 1449 1446 1441 1436
1489 1491 1496 1498 1496 1496 1497 1498 1498 1499 1499 1500 1502 1504 1505 1506 1508 1507 1507 1510 1502 1499 1500 1493 1492 1492 1492 1490 1487 1484 1482 1478 1474 1470 1466 1461 1457 1453 1448 1445 1442 1437 1432 1428
1490 1490 1494 1494 1493 1493 1496 1498 1499 1500 1500 1501 1502 1505 1510 1509 1508 1511 1509 1509 1503 1494 1488 1489 1490 1490 1488 1486 1483 1479 1475 1471 1467 1463 1459 1455 1450 1446 1441 1437 1433 1429 1425 1421
1488 1490 1491 1489 1491 1491 1494 1497 1499 1501 1503 1501 1500 1508 1504 1502 1510 1508 1496 1495 1486 1485 1485 1485 1484 1484 1482 1479 1475 1471 1467 1464 1460 1456 1451 1447 1442 1438 1433 1428 1425 1422 1418 1414